Regional Weather Roundup
Issued by NWS Charleston, WV

Home | Current Version | Previous Version | Graphics & Text | Print | Product List | Glossary On
Versions: 1 2 3 4 5 6 7 8 9 10 11 12 13 14 15 16 17 18 19 20 21 22 23 24 25 26 27 28 29 30 31 32 33 34 35 36 37 38 39 40 41 42 43 44 45 46 47 48 49 50
000
ASUS41 KRLX 280010
RWRRLX
West Virginia Regional Weather Roundup
National Weather Service Charleston WV
700 PM EST TUE JAN 27 2015

Note: "fair" indicates few or no clouds below 12,000 feet with no
significant weather and/or obstructions to visibility.

WVZ003-280100-
Northern Panhandle of West Virginia

CITY           SKY/WX    TMP DP  RH WIND       PRES   REMARKS
WHEELING       CLOUDY    19  13  77 NW8       30.07R WCI   9
$$

WVZ009-280100-
Northwest West Virginia

CITY           SKY/WX    TMP DP  RH WIND       PRES   REMARKS
PARKERSBURG    CLOUDY    22  16  78 NW6       30.15R
$$

WVZ006-280100-
Western West Virginia

CITY           SKY/WX    TMP DP  RH WIND       PRES   REMARKS
HUNTINGTON     CLEAR     23  13  65 N10       30.14R
$$

WVZ015-280100-
West Central West Virginia

CITY           SKY/WX    TMP DP  RH WIND       PRES   REMARKS
CHARLESTON     FLURRIES  24  15  68 VRB5      30.11R
$$

WVZ022-031-280100-
North Central West Virginia

CITY           SKY/WX    TMP DP  RH WIND       PRES   REMARKS
CLARKSBURG     LGT SNOW  21  17  84 NW6       30.06R FOG
MORGANTOWN     LGT SNOW  22  15  75 NW5       30.06R
$$

WVZ025-035-042-045-280100-
Southern West Virginia

CITY           SKY/WX    TMP DP  RH WIND       PRES   REMARKS
BECKLEY        CLOUDY    18  11  74 N12       29.97R WCI   5
LOGAN          MOCLDY    21  14  73 N5        30.06R
BLUEFIELD        N/A     23   5  46 NW14G24   29.94R
LEWISBURG      FLURRIES  21  11  66 NW9       29.96R
$$

WVZ047-280100-
Northern Mountains of West Virginia

CITY           SKY/WX    TMP DP  RH WIND       PRES   REMARKS
ELKINS         LGT SNOW  19  15  84 NW8       30.00R FOG     WCI   9
$$

WVZ052-280100-
Eastern Panhandle of West Virginia

CITY           SKY/WX    TMP DP  RH WIND       PRES   REMARKS
MARTINSBURG    CLOUDY    29  16  58 NW18G28   29.92R
PETERSBURG     CLOUDY    24   9  52 N7        29.99R
$$



USA.gov is the U.S. government's official web portal to all federal, state and local government web resources and services.